Tracking 33199 objects as of 16-Feb-2026
HD Live streaming from Space Station
objects crossing your sky now

CZ-6A DEB

Track CZ-6A DEB now!
10-day predictions


NORAD ID: 54598
Int'l Code: 2022-151MY
Perigee: 598.1 km
Apogee: 669.1 km
Inclination: 98.9 °
Period: 97.2 minutes
Semi major axis: 7004 km
RCS: Unknown
Launch date: November 11, 2022
Source: People's Republic of China (PRC)
Launch site: Taiyaun Space Center, China (TSC)

Note: This is SATELLITE DEBRIS
Your satellite tracking list
Your tracking list is empty




NASA's NSSDC Master Catalog

Two Line Element Set (TLE):
1 54598U 22151MY  26047.27328200  .00032890  00000-0  41520-2 0  9991
2 54598  98.8936 153.3894 0050716 258.9073 100.6431 14.80909449172746
Source of the keplerian elements: AFSPC